This demonstration page uses our WeatherBlox Daily Observations layout. Learn more.

Left ArrowRight Arrow

39.01783, -85.05884

Hourly Observations for December 26, 2020

Temp ( °F °C ) Dew Point ( °F °C ) Humidity (%) Winds ( mph kmh ) Pressure ( in mb ) Visibility ( mi km ) Precip ( " mm )
12:52 am 00:52 Clear 12 -11.1 4 -15.6 70 70 SSW 12 19 30.11 1020 10 16 N/A
1:52 am 01:52 Clear 12 -11.1 5 -15 73 73 SSW 9 15 30.08 1019 10 16 N/A
2:52 am 02:52 Mostly Cloudy 13 -10.6 6 -14.4 74 74 SSW 10 17 30.07 1018 10 16 N/A
3:52 am 03:52 Cloudy 14 -10 6 -14.4 71 71 SW 13 20 30.08 1019 10 16 N/A
4:52 am 04:52 Cloudy 15 -9.4 7 -13.9 70 70 SSW 9 15 30.06 1018 10 16 N/A
5:52 am 05:52 Mostly Cloudy 14 -10 6 -14.4 71 71 SSW 9 15 30.05 1018 10 16 N/A
6:52 am 06:52 Partly Cloudy 14 -10 6 -14.4 71 71 SSW 12 19 30.05 1018 10 16 N/A
7:52 am 07:52 Clear 13 -10.6 6 -14.4 74 74 SSW 9 15 30.05 1018 10 16 N/A
8:52 am 08:52 Partly Cloudy 16 -8.9 8 -13.3 71 71 SSW 8 13 30.06 1018 10 16 N/A
9:52 am 09:52 Mostly Sunny 20 -6.7 9 -12.8 62 62 SW 12 19 30.08 1019 10 16 N/A
10:52 am 10:52 Mostly Cloudy 25 -3.9 12 -11.1 58 58 SW 10 17 30.09 1019 10 16 N/A
11:52 am 11:52 Partly Cloudy 28 -2.2 13 -10.6 53 53 SW 10 17 30.05 1018 10 16 N/A
12:52 pm 12:52 Sunny 31 -0.6 15 -9.4 52 52 SW 9 15 30.03 1017 10 16 N/A
1:52 pm 13:52 Sunny 34 1.1 17 -8.3 50 50 WSW 10 17 30.01 1016 10 16 N/A
2:52 pm 14:52 Sunny 36 2.2 18 -7.8 48 48 SW 8 13 30.02 1017 10 16 N/A
3:52 pm 15:52 Mostly Sunny 37 2.8 18 -7.8 46 46 SW 10 17 30.02 1017 10 16 N/A
4:52 pm 16:52 Partly Cloudy 35 1.7 18 -7.8 50 50 SW 6 9 30.02 1017 10 16 N/A
5:52 pm 17:52 Partly Cloudy 32 undefined 18 -7.8 56 56 SSW 5 7 30.02 1017 10 16 N/A
6:52 pm 18:52 Partly Cloudy 30 -1.1 19 -7.2 64 64 N N/A 30.05 1018 10 16 N/A
7:52 pm 19:52 Clear 28 -2.2 18 -7.8 66 66 N N/A 30.06 1018 10 16 N/A
8:52 pm 20:52 Mostly Clear 28 -2.2 19 -7.2 69 69 S 5 7 30.05 1018 10 16 N/A
9:52 pm 21:52 Mostly Clear 28 -2.2 19 -7.2 69 69 SE 3 6 30.05 1018 10 16 N/A
10:52 pm 22:52 Mostly Clear 25 -3.9 18 -7.8 75 75 SSE 7 11 30.06 1018 10 16 N/A
11:52 pm 23:52 Mostly Clear 28 -2.2 19 -7.2 69 69 SSE 5 7 30.06 1018 10 16 N/A

Powered by AerisWeather